This is the latest recevied weather packets stored in our database for station/object KC8YYF. If no packets are shown the sender has not sent any weather packets the latest 10 day(s).
| Time | Temp. | Humidity | Pressure | Rain* | Wind** | Luminosity | Snow |
|---|---|---|---|---|---|---|---|
| 1777344549 | 18.33° C | 61% | 1015 hPa | 0 mm | - | 0 W/m² | - |
| 1777344247 | 18.33° C | 59% | 1015.1 hPa | 0 mm | - | 0 W/m² | - |
| 1777343944 | 18.33° C | 59% | 1015.1 hPa | 0 mm | - | 0 W/m² | - |
| 1777343642 | 18.33° C | 61% | 1015.1 hPa | 0 mm | - | 0 W/m² | - |
| 1777343338 | 17.78° C | 61% | 1015.2 hPa | 0 mm | - | 0 W/m² | - |
| 1777343036 | 18.33° C | 61% | 1015.4 hPa | 0 mm | - | 0 W/m² | - |
| 1777342733 | 17.78° C | 62% | 1015.6 hPa | 0 mm | - | 0 W/m² | - |
| 1777342430 | 18.33° C | 63% | 1015.6 hPa | 0 mm | - | 0 W/m² | - |
| 1777342127 | 18.33° C | 60% | 1015.4 hPa | 0 mm | - | 0 W/m² | - |
| 1777341823 | 18.33° C | 58% | 1015.5 hPa | 0 mm | - | 0 W/m² | - |
| 1777341520 | 18.33° C | 60% | 1015.8 hPa | 0 mm | - | 0 W/m² | - |
| 1777341216 | 18.33° C | 63% | 1015.9 hPa | 0 mm | - | 0 W/m² | - |
| 1777340913 | 18.33° C | 62% | 1015.7 hPa | 0 mm | - | 0 W/m² | - |
| 1777340612 | 18.33° C | 65% | 1015.7 hPa | 0 mm | - | 0 W/m² | - |
| 1777340308 | 18.33° C | 64% | 1015.9 hPa | 0 mm | - | 0 W/m² | - |
| 1777340005 | 18.33° C | 64% | 1015.8 hPa | 0 mm | - | 0 W/m² | - |
| 1777339703 | 18.33° C | 65% | 1015.8 hPa | 0 mm | - | 0 W/m² | - |
| 1777339400 | 18.33° C | 62% | 1015.8 hPa | 0 mm | - | 0 W/m² | - |
| 1777339098 | 18.33° C | 60% | 1015.7 hPa | 0 mm | - | 0 W/m² | - |
| 1777338795 | 18.89° C | 60% | 1015.9 hPa | 0 mm | - | 0 W/m² | - |
| 1777338492 | 18.89° C | 56% | 1016.1 hPa | 0 mm | - | 0 W/m² | - |
| 1777338190 | 18.89° C | 58% | 1016 hPa | 0 mm | - | 0 W/m² | - |
| 1777337885 | 18.89° C | 56% | 1016.2 hPa | 0 mm | - | 0 W/m² | - |
| 1777337583 | 18.89° C | 57% | 1016.1 hPa | 0 mm | - | 0 W/m² | - |
| 1777337280 | 18.89° C | 56% | 1016.4 hPa | 0 mm | - | 0 W/m² | - |
* Rain latest hour (hover to see other rain measurements)
** Current wind speed in m/s (hover to see current wind gust speed)